Flag for Brazil Weather past 2 weeks in Vitória da Conquista, Bahia, Brazil

Now
79 °F

Scattered clouds.


Feels Like: 81 °F
Forecast: 62 / 82 °F
Wind: 8 mph from Northeast

Location: Salvador Aeroporto

Current Time: Sep 30, 2014 at 7:44:01 AM

Latest Report: Sep 30, 2014 at 7:00 AM


Visibility: N/A

Pressure: 30.04 "Hg

Humidity: 70%

Dew point: 68 °F

Location of Vitória da ConquistaLocation

Historic Weather in Vitória da Conquista — Graph

°F

Vitória da Conquista temperature yesterday

Maximum temperature yesterday: 81 °F (at 9:00 AM)
Minimum temperature yesterday: 73 °F (at 4:00 AM)
Average temperature yesterday: 78 °F

Past Weeks' High & Low Weather Summary

 TemperatureHumidityPressure
High88 °F (Sep 22, 11:00 AM)100% (Sep 15, 8:00 AM)30.12 "Hg (Sep 15, 8:00 AM)
Low36 °F (Sep 25, 7:00 AM)55% (Sep 22, 11:00 AM)29.89 "Hg (Sep 21, 2:00 PM)
Average76 °F77%30.03 "Hg
* Reported Sep 15 7:00 AM — Sep 30 7:00 AM, Vitória da Conquista, Weather by CustomWeather, © 2014

Note: Actual official high and low records may vary slightly from our data, if they occured in-between our weather recording intervals... More about our weather records

Advertising

Vitória da Conquista weather history for previous 24 hours

 ConditionsComfort  
Time TempWeatherWind HumidityBarometerVisibility
7:00 AM
Sep 30
79 °FScattered clouds.8 mph70%30.04 "HgN/A
6:00 AM75 °FScattered clouds.8 mph78%30.04 "HgN/A
5:00 AM73 °FPassing clouds.6 mph83%30.01 "HgN/A
4:00 AM75 °FPassing clouds.9 mph78%30.01 "HgN/A
3:00 AM75 °FPassing clouds.10 mph78%30.01 "HgN/A
2:00 AM75 °FPassing clouds.12 mph78%30.01 "HgN/A
1:00 AM77 °FPassing clouds.14 mph74%30.01 "HgN/A
12:00 AM77 °FPassing clouds.13 mph74%30.04 "HgN/A
11:00 PM
Sep 29
77 °FPassing clouds.12 mph79%30.04 "HgN/A
10:00 PM77 °FPassing clouds.13 mph79%30.04 "HgN/A
9:00 PM77 °FPassing clouds.12 mph79%30.04 "HgN/A
8:00 PM77 °FPassing clouds.10 mph79%30.04 "HgN/A
7:00 PM77 °FPassing clouds.13 mph79%30.01 "HgN/A
6:00 PM77 °FPassing clouds.12 mph79%29.98 "HgN/A
5:00 PM79 °FScattered clouds.12 mph74%29.98 "HgN/A
4:00 PM81 °FScattered clouds.14 mph70%29.98 "HgN/A
3:00 PM81 °FScattered clouds.10 mph70%29.98 "HgN/A
2:00 PM81 °FScattered clouds.10 mph70%30.01 "HgN/A
1:00 PM81 °FScattered clouds.12 mph70%30.01 "HgN/A
12:00 PM81 °FScattered clouds.10 mph70%30.04 "HgN/A
11:00 AM81 °FPassing clouds.9 mph70%30.07 "HgN/A
10:00 AM81 °FScattered clouds.9 mph70%30.09 "HgN/A
9:00 AM81 °FScattered clouds.9 mph70%30.09 "HgN/A
8:00 AM79 °FPassing clouds.9 mph70%30.09 "HgN/A
7:00 AM79 °FScattered clouds.10 mph70%30.07 "HgN/A
Weather by CustomWeather, © 2014

See weather overviewHow to use our weather pages